[Iaude] MPEC U109: 2016 UV41 [a=1.78,e=0.37,i=9.9,H=23.8]

mpec at si.edu mpec at si.edu
Sun Oct 30 12:30:45 EDT 2016


M.P.E.C. 2016-U109                               Issued 2016 Oct. 30, 16:24 UT
 
     The Minor Planet Electronic Circulars contain information on unusual
         minor planets and routine data on comets.  They are published
    on behalf of Division F of the International Astronomical Union by the
          Minor Planet Center, Smithsonian Astrophysical Observatory,
                          Cambridge, MA 02138, U.S.A.

             Prepared using the Tamkin Foundation Computer Network

                              MPC at CFA.HARVARD.EDU
            URL http://www.minorplanetcenter.net/    ISSN 1523-6714


                                   2016 UV41
 
Observations:
     K16U41V* C2016 10 26.41898 00 34 22.147+13 41 21.89         21.9 wLEU109F51
     K16U41V  C2016 10 26.43000 00 34 22.275+13 41 52.32         21.9 wLEU109F51
     K16U41V  C2016 10 26.45199 00 34 22.661+13 42 53.38         21.5 wLEU109F51
     K16U41V  C2016 10 27.22819 00 34 49.18 +14 18 24.6          21.1 RoEU109291
     K16U41V  C2016 10 27.23195 00 34 49.25 +14 18 34.5          20.9 RoEU109291
     K16U41V  C2016 10 27.23569 00 34 49.34 +14 18 45.7          22.2 RoEU109291
     K16U41V _C2016 10 27.39510900 34 53.980+14 26 03.56         22.0 GUEU109568
     K16U41V _C2016 10 27.39638700 34 54.001+14 26 06.99         21.9 GUEU109568
     K16U41V _C2016 10 27.39766400 34 54.023+14 26 10.40         21.5 GUEU109568
     K16U41V _C2016 10 27.39894500 34 54.043+14 26 13.82         21.6 GUEU109568
     K16U41V _C2016 10 27.40022300 34 54.068+14 26 17.23         21.8 GUEU109568
     K16U41V _C2016 10 27.40150800 34 54.087+14 26 20.68         21.6 GUEU109568
     K16U41V _C2016 10 27.40278900 34 54.111+14 26 24.13         21.5 GUEU109568
     K16U41V KC2016 10 30.23771 00 36 37.34 +16 25 48.8                oEU109291
     K16U41V KC2016 10 30.24479 00 36 37.52 +16 26 05.4                oEU109291
     K16U41V KC2016 10 30.25189 00 36 37.68 +16 26 22.7                oEU109291
 
Observer details:
291 LPL/Spacewatch II.  Observers R. A. Mastaler, M. T. Read.  1.8-m f/2.7
    reflector + CCD.
568 Mauna Kea.  Observers R. J. Wainscoat, C. Wipper.  Measurers M. Micheli,
    R. J. Wainscoat.  3.6-m Canada-France-Hawaii Telescope + CCD.
F51 Pan-STARRS 1, Haleakala.  Observers B. Gibson, T. Goggia, S. Kahale,
    A. Schultz, M. Willman.  Measurers K. Chambers, S. Chastel, L. Denneau,
    H. Flewelling, M. Huber, E. Lilly, E. Magnier, R. Wainscoat, C. Waters,
    R. Weryk.  1.8-m Ritchey-Chretien + CCD.
 
Orbital elements:
2016 UV41                                                Earth MOID = 0.1406 AU
Epoch 2016 July 31.0 TT = JDT 2457600.5                 MPC
M 340.44721              (2000.0)            P               Q
n   0.41524313     Peri.  332.06749     +0.98912601     +0.13415666
a   1.7793761      Node    20.48956     -0.08075877     +0.83790916
e   0.3664336      Incl.    9.91366     -0.12291358     +0.52906543
P   2.37           H   23.8           G   0.15           U   8
Residuals in seconds of arc
161026 F51  0.3+  0.1+    161027 568  0.1+  0.0     161027 568  0.1+  0.1+
161026 F51  0.4-  0.1-    161027 568  0.1+  0.0     161030 291  0.0   0.0
161026 F51  0.1-  0.0     161027 568  0.1+  0.0     161030 291  0.1+  0.2-
161027 291  0.1-  0.3-    161027 568  0.0   0.0     161030 291  0.2-  0.3+
161027 291  0.0   0.5-    161027 568  0.1+  0.0
161027 291  0.3+  0.5+    161027 568  0.0   0.0

Ephemeris:
2016 UV41                a,e,i = 1.78, 0.37, 10                  q = 1.1274
Date    TT    R. A. (2000) Decl.     Delta      r     Elong.  Phase     V
2016 09 30    00 29 50.9 -18 48 38   0.1429  1.1355   158.4    19.0    20.8
...
2016 10 15    00 30 24.8 +02 26 56   0.1691  1.1619   166.1    11.9    21.0
...
2016 10 23    00 32 47.3 +10 49 42   0.1970  1.1828   160.9    16.0    21.5
...
2016 10 29    00 35 50.6 +15 35 35   0.2234  1.2011   156.2    19.5    21.9
2016 10 30    00 36 28.2 +16 16 29   0.2282  1.2043   155.4    20.0    22.0
2016 10 31    00 37 07.9 +16 55 38   0.2331  1.2077   154.7    20.6    22.1
...
2016 11 06    00 41 49.8 +20 17 20   0.2651  1.2287   150.4    23.5    22.5
...
2016 11 14    00 49 58.6 +23 34 39   0.3135  1.2595   145.2    26.6    23.0
...
2016 11 29    01 10 07.4 +27 21 58   0.4212  1.3241   136.5    30.8    23.9

A. U. Tomatic                (C) Copyright 2016 MPC           M.P.E.C. 2016-U109




More information about the Iaude mailing list